Total_Precipitation_Accumulation
0.12 0.21 0.24 0.24 0.22 0.18 0.15 0.12 0.22 0.26 0.37 0.45 0.48 0.61 0.78 0.92 0.92 0.88 0.72 0.63 0.70 0.70 0.76 0.79 0.80 0.87 0.82 0.80 0.85 0.99 1.17 1.30 1.44 1.44 1.42 1.41 1.47 1.52 1.54 1.63 1.63 1.69 1.74 1.76
0.16 0.19 0.24 0.27 0.25 0.19 0.13 0.12 0.16 0.24 0.38 0.50 0.57 0.67 0.74 0.71 0.65 0.59 0.55 0.45 0.43 0.60 0.69 0.65 0.64 0.67 0.62 0.68 0.81 0.95 1.05 1.16 1.37 1.49 1.52 1.52 1.55 1.64 1.68 1.69 1.69 1.72 1.68 1.73
0.25 0.24 0.25 0.34 0.33 0.24 0.15 0.14 0.20 0.32 0.49 0.65 0.55 0.55 0.62 0.63 0.61 0.57 0.55 0.40 0.34 0.41 0.56 0.55 0.56 0.57 0.67 0.80 0.93 1.05 1.18 1.32 1.51 1.61 1.69 1.70 1.66 1.75 1.72 1.72 1.76 1.73 1.67 1.66
0.31 0.42 0.51 0.37 0.30 0.29 0.29 0.26 0.28 0.40 0.42 0.56 0.56 0.61 0.73 0.73 0.71 0.56 0.49 0.39 0.35 0.36 0.41 0.48 0.55 0.62 0.76 1.04 1.25 1.29 1.43 1.61 1.72 1.83 1.79 1.77 1.76 1.78 1.85 1.92 1.94 1.90 1.84 1.75
0.47 0.60 0.52 0.44 0.32 0.36 0.41 0.54 0.56 0.64 0.61 0.56 0.56 0.66 0.75 0.65 0.57 0.58 0.47 0.43 0.42 0.41 0.48 0.57 0.62 0.66 0.87 1.10 1.34 1.47 1.53 1.66 1.82 1.92 1.97 1.99 2.01 1.96 2.00 2.07 2.02 1.95 1.91 1.95
0.59 0.74 0.73 0.61 0.48 0.47 0.58 1.03 0.86 0.79 0.81 0.69 0.64 0.77 0.83 0.79 0.72 0.66 0.58 0.54 0.53 0.55 0.63 0.77 0.87 0.92 1.06 1.17 1.31 1.48 1.56 1.68 1.86 2.08 2.14 2.17 2.29 2.34 2.27 2.23 2.11 2.13 2.13 2.11
0.74 0.80 0.87 0.74 0.68 0.71 1.11 1.39 1.08 0.91 0.87 0.83 0.92 0.94 0.90 0.80 0.81 0.74 0.63 0.65 0.63 0.65 0.77 0.96 1.10 1.16 1.26 1.39 1.50 1.51 1.59 1.72 1.92 2.09 2.17 2.23 2.37 2.44 2.43 2.40 2.38 2.31 2.24 2.26
0.89 1.07 1.24 0.87 0.83 1.24 1.50 1.25 1.24 1.21 1.13 1.01 0.98 0.94 0.90 0.81 0.79 0.74 0.71 0.75 0.76 0.80 0.95 1.17 1.33 1.29 1.34 1.41 1.45 1.49 1.52 1.63 1.75 1.91 1.95 2.03 2.26 2.36 2.43 2.46 2.41 2.32 2.26 2.14
1.18 1.30 1.20 1.01 1.09 1.26 1.39 1.55 1.46 1.34 1.34 1.15 1.11 1.02 0.92 0.84 0.81 0.78 0.75 0.80 0.83 0.89 1.09 1.33 1.48 1.49 1.55 1.44 1.50 1.53 1.56 1.68 1.81 1.89 1.96 2.07 2.16 2.16 2.22 2.30 2.27 2.17 2.16 2.09
1.36 1.40 1.32 1.19 1.06 0.99 1.12 1.23 1.22 1.21 1.20 1.15 1.12 1.07 0.98 0.87 0.80 0.80 0.80 0.75 0.79 0.87 0.97 1.06 1.26 1.43 1.52 1.56 1.61 1.61 1.64 1.68 1.75 1.87 1.90 1.92 2.03 2.11 2.21 2.31 2.39 2.30 2.19 2.09
1.61 1.52 1.39 1.40 1.29 1.17 1.24 1.30 1.21 1.15 1.12 1.13 1.10 1.05 0.92 0.88 0.86 0.83 0.81 0.76 0.78 0.86 0.88 0.94 1.03 1.15 1.23 1.32 1.44 1.50 1.54 1.58 1.62 1.64 1.73 1.81 1.85 1.93 1.94 2.03 2.03 2.02 1.98 1.94
1.94 1.69 1.53 1.50 1.38 1.27 1.33 1.30 1.35 1.41 1.37 1.16 1.06 1.13 1.06 0.93 0.83 0.81 0.82 0.80 0.83 0.85 0.84 0.87 0.94 1.09 1.20 1.29 1.42 1.53 1.60 1.62 1.54 1.50 1.56 1.60 1.63 1.62 1.62 1.55 1.54 1.49 1.48 1.47
1.57 1.42 1.38 1.36 1.33 1.25 1.27 1.20 1.18 1.25 1.28 1.18 1.11 1.08 1.14 1.05 0.96 0.90 0.83 0.77 0.81 0.86 0.85 0.87 0.91 1.02 1.10 1.19 1.30 1.39 1.49 1.54 1.52 1.48 1.53 1.52 1.53 1.55 1.59 1.52 1.41 1.33 1.28 1.25
1.37 1.31 1.32 1.27 1.21 1.20 1.22 1.16 1.03 1.02 1.10 1.12 1.12 1.16 1.24 1.18 1.08 1.02 0.97 0.88 0.81 0.81 0.80 0.83 0.91 0.94 1.02 1.11 1.18 1.22 1.28 1.35 1.45 1.55 1.58 1.61 1.64 1.67 1.73 1.78 1.72 1.54 1.37 1.26
1.45 1.34 1.23 1.09 1.08 1.11 1.09 1.05 0.97 0.92 1.06 1.19 1.13 1.15 1.20 1.09 1.02 0.97 0.92 0.88 0.86 0.84 0.86 0.88 0.93 0.95 1.02 1.13 1.19 1.20 1.22 1.25 1.26 1.31 1.40 1.47 1.48 1.52 1.59 1.67 1.70 1.59 1.42 1.30
1.51 1.38 1.19 1.05 1.08 1.15 1.15 1.11 1.03 0.91 0.87 1.00 1.08 1.05 1.09 1.02 0.92 0.93 0.94 0.95 1.00 1.01 1.01 1.00 1.05 1.01 1.06 1.14 1.20 1.23 1.18 1.20 1.19 1.17 1.17 1.19 1.22 1.29 1.38 1.47 1.51 1.42 1.31 1.18
1.52 1.45 1.29 1.12 1.06 1.05 1.07 1.09 1.03 0.92 0.81 0.83 0.95 1.00 1.04 1.00 0.91 0.89 0.92 0.95 0.99 1.01 1.02 1.07 1.12 1.13 1.19 1.23 1.23 1.23 1.16 1.13 1.11 1.09 1.08 1.08 1.11 1.17 1.22 1.26 1.28 1.21 1.12 0.96
1.38 1.29 1.18 1.09 1.01 0.98 1.00 0.98 0.97 0.95 0.90 0.85 0.87 0.91 0.95 1.02 1.06 1.02 0.96 0.96 0.96 0.94 0.90 0.91 0.98 1.06 1.18 1.28 1.31 1.27 1.12 1.00 0.94 0.94 0.98 1.02 1.03 1.08 1.13 1.13 1.09 1.03 0.95 0.80
1.22 1.18 1.09 1.04 1.02 0.99 0.96 0.92 0.90 0.91 0.86 0.81 0.86 0.91 0.94 1.01 1.13 1.11 1.03 1.03 1.09 1.10 0.98 0.88 0.95 0.94 1.01 1.18 1.31 1.31 1.15 1.01 0.92 0.88 0.87 0.90 0.92 0.98 1.02 0.99 0.91 0.84 0.78 0.73
1.21 1.24 1.24 1.20 1.13 1.09 1.01 0.92 0.89 0.89 0.86 0.82 0.84 0.87 0.93 0.97 1.09 1.16 1.15 1.05 1.05 1.12 1.10 1.02 0.92 0.84 0.85 0.99 1.23 1.21 1.18 1.10 0.97 0.85 0.86 0.89 0.91 0.94 0.94 0.91 0.85 0.79 0.75 0.72
1.26 1.33 1.31 1.27 1.21 1.11 0.99 0.91 0.90 0.90 0.87 0.89 0.91 0.92 0.98 1.00 0.99 1.12 1.22 1.09 0.96 1.04 1.10 1.06 0.91 0.81 0.79 0.91 1.13 1.17 1.13 1.10 1.01 0.88 0.82 0.82 0.83 0.87 0.90 0.89 0.84 0.76 0.73 0.73
1.42 1.49 1.38 1.22 1.15 1.05 0.93 0.87 0.83 0.83 0.82 0.89 0.95 1.00 1.13 1.19 1.14 1.12 1.08 1.04 1.02 1.12 1.10 1.02 0.92 0.80 0.73 0.77 0.86 0.99 0.97 0.91 0.85 0.76 0.69 0.68 0.73 0.79 0.80 0.80 0.77 0.72 0.70 0.72
1.44 1.40 1.28 1.10 1.03 0.90 0.75 0.74 0.73 0.73 0.74 0.83 0.97 1.14 1.37 1.38 1.30 1.35 1.18 0.95 0.94 1.08 1.05 0.96 0.93 0.81 0.69 0.66 0.72 0.80 0.83 0.83 0.79 0.70 0.60 0.60 0.64 0.68 0.71 0.68 0.67 0.66 0.62 0.57
1.22 1.13 1.03 0.91 0.92 0.87 0.81 0.78 0.76 0.77 0.80 0.85 0.91 1.10 1.38 1.52 1.34 1.12 1.06 1.03 1.00 0.99 0.93 0.93 0.90 0.80 0.73 0.65 0.67 0.76 0.82 0.84 0.77 0.70 0.61 0.62 0.62 0.64 0.67 0.64 0.61 0.58 0.52 0.52
1.17 0.99 0.88 0.88 0.99 1.07 1.02 0.97 0.96 0.98 1.00 1.00 0.95 1.00 1.15 1.39 1.41 1.11 0.92 0.85 0.89 0.89 0.85 0.91 0.91 0.88 0.74 0.63 0.64 0.75 0.83 0.89 0.90 0.82 0.75 0.75 0.72 0.71 0.71 0.67 0.65 0.62 0.62 0.61
1.13 1.01 0.93 0.92 0.99 1.15 1.19 1.21 1.28 1.31 1.36 1.40 1.33 1.21 1.22 1.27 1.19 1.05 0.90 0.78 0.79 0.86 0.82 0.85 0.89 0.90 0.77 0.69 0.69 0.75 0.81 0.87 0.91 0.90 0.87 0.83 0.79 0.76 0.75 0.73 0.72 0.70 0.66 0.62
1.16 1.06 1.01 0.98 0.99 1.12 1.27 1.39 1.50 1.55 1.65 1.80 1.78 1.49 1.37 1.38 1.30 1.19 1.04 0.94 0.96 0.99 0.94 0.88 0.81 0.78 0.79 0.79 0.76 0.74 0.78 0.86 0.86 0.87 0.88 0.83 0.78 0.76 0.74 0.68 0.64 0.62 0.57 0.51